Vertical_Velocity
7 0 1 7 7 10 8 4 2 -1 -1 3 -1 -1 -0 -2 -0 1 -0 -2 -2 -2
9 -11 1 2 2 3 2 6 3 1 -1 2 3 -0 -3 -3 -0 -5 -3 1 -1 -4
15 -5 -3 -2 9 0 -0 2 4 2 1 1 4 2 -0 -1 1 -4 -1 -2 -3 -1
2 2 -2 -6 10 2 -1 -0 2 -1 0 1 -0 3 -1 -1 -0 -1 -4 -4 -3 -2
-3 -0 -10 6 2 2 -1 -3 1 -0 -0 -2 -1 1 -3 -2 -1 -2 -1 -2 -8 -2
20 12 37 19 -10 2 -1 2 1 -1 2 0 1 -2 -3 -6 -5 -7 -2 -2 -5 -1
18 8 7 2 9 0 -2 -0 -3 2 -2 -2 -1 -5 -6 -3 -9 -6 -6 -5 -3 1
23 -10 13 5 5 -3 -3 -5 7 -1 -5 -1 -4 -3 -1 -6 -7 -7 -5 -0 -1 3
-2 -0 -6 2 1 -1 -7 0 -8 -8 -3 -3 0 -3 -4 -5 -5 -3 -6 -0 4 -2
2 -5 -10 -2 -1 1 -4 11 1 -6 1 -0 -3 -4 -3 -3 -4 -3 -2 -1 -4 0
6 1 0 32 -6 7 0 -3 -9 -2 1 -4 -3 -1 -2 -1 -3 1 2 -2 -2 0
-6 -4 -2 -4 -4 3 -8 -4 3 1 -3 -2 -2 -2 1 3 -0 1 1 -1 -2 1
-1 3 -6 -2 -1 -3 -2 -2 0 -2 0 -5 -5 0 2 1 -1 1 3 1 0 2
-3 -0 8 -1 -3 2 -0 -0 -4 -1 3 -1 3 7 2 -0 -0 1 2 1 3 1
Height
5621 5626 5631 5634 5636 5641 5644 5647 5649 5653 5657 5660 5662 5664 5667 5670 5673 5673 5676 5678 5680 5682
5601 5605 5611 5615 5617 5620 5623 5627 5630 5634 5638 5642 5644 5647 5650 5654 5657 5658 5660 5664 5665 5667
5579 5585 5592 5596 5598 5600 5604 5609 5612 5616 5620 5624 5627 5629 5632 5637 5641 5643 5646 5648 5650 5653
5561 5563 5570 5576 5580 5583 5588 5591 5595 5599 5603 5606 5609 5612 5616 5621 5624 5627 5630 5632 5635 5638
5538 5544 5548 5556 5561 5566 5572 5575 5579 5583 5587 5591 5594 5596 5600 5603 5607 5611 5614 5616 5619 5623
5517 5522 5531 5534 5544 5550 5556 5561 5565 5569 5573 5577 5580 5582 5585 5588 5592 5595 5598 5601 5604 5608
5497 5504 5509 5518 5525 5534 5540 5546 5551 5554 5559 5562 5565 5568 5571 5574 5576 5580 5583 5586 5590 5592
5476 5484 5494 5504 5511 5520 5526 5531 5537 5540 5545 5549 5553 5555 5557 5558 5560 5564 5568 5572 5575 5579
5458 5469 5479 5490 5500 5507 5513 5518 5524 5529 5534 5537 5539 5541 5542 5544 5546 5549 5553 5556 5560 5565
5443 5456 5468 5479 5487 5495 5501 5506 5512 5517 5523 5525 5527 5528 5529 5530 5533 5535 5538 5541 5547 5551
5433 5445 5458 5466 5478 5485 5490 5496 5502 5507 5511 5513 5515 5515 5516 5517 5520 5521 5525 5529 5535 5539
5423 5435 5446 5460 5469 5475 5482 5487 5492 5496 5499 5502 5502 5503 5504 5506 5508 5511 5515 5520 5524 5526
5418 5429 5442 5453 5459 5465 5473 5477 5482 5485 5488 5490 5491 5493 5494 5496 5498 5502 5506 5509 5512 5515
5413 5423 5435 5445 5451 5456 5464 5469 5473 5476 5478 5480 5482 5484 5486 5488 5490 5493 5495 5498 5502 5505